STARLINK-35143

Last updated on Tue Sep 16 2025 00:02:08 GMT+0000 (Coordinated Universal Time)

1 65485U 25195AD 25257.76782400 -.00424386 00000+0 -26067-2 0 9996 2 65485 53.1552 1.4195 0001405 121.8866 238.2292 15.77681940 2955
UTC large
Height (km)
Speed (km/s)
/
Latitude / Longitude
Inclination (degrees)
Orbital Period (minutes)
Azimuth
Elevation
Range (km)
Doppler Factor

Next 0 passes for location: London (51.5072 / 0.1276)

Sorry there are no passes over London.